This is the latest recevied weather packets stored in our database for station/object DL8JF-13. If no packets are shown the sender has not sent any weather packets the latest 10 day(s).
| Time | Temp. | Humidity | Pressure | Rain* | Wind** | Luminosity | Snow |
|---|---|---|---|---|---|---|---|
| 1778180629 | 11.67° C | 53% | 1013.4 hPa | 0 mm | - | - | - |
| 1778179733 | 11.67° C | 52% | 1012.6 hPa | 0 mm | - | - | - |
| 1778178832 | 12.22° C | 51% | 1011.7 hPa | 0 mm | - | - | - |
| 1778177932 | 12.22° C | 50% | 1011.7 hPa | 0 mm | - | - | - |
| 1778177032 | 12.78° C | 48% | 1011.7 hPa | 0 mm | - | - | - |
| 1778176130 | 12.78° C | 46% | 1011.3 hPa | 0 mm | - | - | - |
| 1778175233 | 13.33° C | 47% | 1011.2 hPa | 0 mm | - | - | - |
| 1778174333 | 13.89° C | 47% | 1011.2 hPa | 0 mm | - | - | - |
| 1778173432 | 13.89° C | 47% | 1011.1 hPa | 0 mm | - | - | - |
| 1778172532 | 14.44° C | 46% | 1011 hPa | 0 mm | - | - | - |
| 1778171632 | 14.44° C | 47% | 1011.1 hPa | 0 mm | - | - | - |
| 1778170733 | 14.44° C | 45% | 1011.1 hPa | 0 mm | - | - | - |
| 1778169830 | 14.44° C | 47% | 1011.1 hPa | 0 mm | - | - | - |
| 1778168932 | 14.44° C | 45% | 1010.8 hPa | 0 mm | - | - | - |
| 1778168032 | 14.44° C | 46% | 1010.7 hPa | 0 mm | - | - | - |
| 1778167132 | 14.44° C | 49% | 1010.7 hPa | 0 mm | - | - | - |
| 1778166232 | 14.44° C | 49% | 1010.9 hPa | 0 mm | - | - | - |
| 1778165329 | 14.44° C | 48% | 1010.7 hPa | 0 mm | - | - | - |
| 1778164432 | 14.44° C | 49% | 1010.7 hPa | 0 mm | - | - | - |
| 1778163532 | 14.44° C | 50% | 1010.7 hPa | 0 mm | - | - | - |
| 1778162633 | 14.44° C | 49% | 1010.7 hPa | 0 mm | - | - | - |
| 1778161732 | 14.44° C | 51% | 1010.8 hPa | 0 mm | - | - | - |
| 1778160829 | 14.44° C | 52% | 1010.6 hPa | 0 mm | - | - | - |
| 1778159932 | 13.89° C | 53% | 1010.6 hPa | 0 mm | - | - | - |
| 1778159032 | 14.44° C | 52% | 1010.7 hPa | 0 mm | - | - | - |
* Rain latest hour (hover to see other rain measurements)
** Current wind speed in m/s (hover to see current wind gust speed)